Tracking 20083 objects as of 12-Dec-2019
HD Live streaming from Space Station
objects crossing your sky now

GSTAR 1

Track GSTAR 1 now!
GSTAR 1 is classified as:


NORAD ID: 15677
Int'l Code: 1985-035A
Perigee: 35,761.3 km
Apogee: 35,825.6 km
Inclination: 15.0 °
Period: 1,436.1 minutes
Semi major axis: 42164 km
RCS: 1.6993 m2 (large)
Launch date: May 8, 1985
Source: United States (US)
Launch site: FRENCH GUIANA (FRGUI)
aabbcc
Your satellite tracking list
Your tracking list is empty




NASA's NSSDC Master Catalog

Two Line Element Set (TLE):
1 15677U 85035A   19346.18792380 -.00000102  00000-0  00000+0 0  9991
2 15677  15.0159   8.1950 0007627 354.8490  39.9535  1.00272902101387
Source of the keplerian elements: AFSPC